Regional Weather Roundup
Issued by NWS

Home | Current Version | Previous Version | Text Only | Print | Product List | Glossary Off
Versions: 1 2 3 4 5 6 7 8 9 10 11 12 13 14 15 16 17 18 19 20 21 22 23 24 25 26 27 28 29 30 31 32 33 34 35 36 37 38 39 40 41 42 43 44 45 46 47 48 49 50

973
ASUS44 KLIX 191501
RWRLA
LOUISIANA WEATHER ROUNDUP
NATIONAL WEATHER SERVICE NEW ORLEANS LA
900 AM CST FRI DEC 19 2014

NOTE: "FAIR" INDICATES FEW OR NO CLOUDS BELOW 12,000 FEET WITH NO
      SIGNIFICANT WEATHER AND/OR OBSTRUCTIONS TO VISIBILITY.
      SKY/WX - SKY CONDITION AND SIGNIFICANT WEATHER.
      TMP - AIR TEMPERATURE.    DP   - DEWPOINT TEMPERATURE.
      RH  - RELATIVE HUMIDITY.  PRES - PRESSURE.
      HX  - HEAT INDEX.         WCI  - WIND CHILL INDEX.

*  THESE STATIONS ARE NOT NWS OR FAA STATIONS AND ARE NOT UNDER
   NWS QUALITY CONTROL.

LAZ040-048-061>063-065-066-069-191600-
SOUTHEAST LOUISIANA

CITY           SKY/WX    TMP DP  RH WIND       PRES   REMARKS
N.O. AUDUBON   NOT AVBL
N.O. INTL ARPT CLOUDY    56  52  86 NE15      30.16R
N.O. LAKEFRONT CLOUDY    58  53  84 NE16      30.16F
N.O. DOWNTOWN* CLOUDY    55  48  76 NE10G16   30.15S
SLIDELL        LGT RAIN  51  49  92 NE12      30.16F
BATON ROUGE    CLOUDY    55  52  89 E14       30.12F
BOOTHVILLE     CLOUDY    60  56  86 NE8       30.13R
BELLE CHASSE   CLOUDY    57  53  86 NE14      30.15R
BOGALUSA*      LGT RAIN  50  46  88 E5        30.19F
GALLIANO*      NOT AVBL
NEW ROADS*     NOT AVBL
GONZALES*      NOT AVBL
HAMMOND*       NOT AVBL
HOUMA*         NOT AVBL
PORT FOURCHON* CLOUDY    63  59  88 E14       30.13S

$$

LAZ041-044-053-054-191600-
SOUTHWEST LOUISIANA

CITY           SKY/WX    TMP DP  RH WIND       PRES   REMARKS
LAKE CHARLES   CLOUDY    57  56  96 NE10      30.07R
LAFAYETTE      CLOUDY    57 N/A N/A VRB5      30.10R
PATTERSON      CLOUDY    55  54  94 NE16G22   30.12S
SALT POINT       N/A     60  55  83 NE9       30.09R
NEW IBERIA     CLOUDY    58  54  86 NE7       30.10R
CHENAULT AIRPK LGT RAIN  55  54  94 N12       30.09R

$$

LAZ027-028-191600-
CENTRAL LOUISIANA

CITY           SKY/WX    TMP DP  RH WIND       PRES   REMARKS
FORT POLK      LGT RAIN  52  52  97 E7        30.12R FOG
ALEXANDRIA INT LGT RAIN  52  50  93 NE9       30.11R FOG
ALEXANDRIA     LGT RAIN  51  49  92 VRB3      30.14R

$$

LAZ001-002-191600-
NORTHWEST LOUISIANA

CITY           SKY/WX    TMP DP  RH WIND       PRES   REMARKS
SHREVEPORT     LGT RAIN  47  46  97 NE12      30.19R FOG
BARKSDALE AFB  NOT AVBL
DTN SHREVEPORT RAIN      46  44  93 N8        30.18S FOG

$$

LAZ014-016-191600-
NORTHEAST LOUISIANA

CITY           SKY/WX    TMP DP  RH WIND       PRES   REMARKS
MONROE         LGT RAIN  47  45  93 NE6       30.23R FOG
TALLULAH       CLOUDY    50  40  68 E6        30.20R

$$




USA.gov is the U.S. government's official web portal to all federal, state and local government web resources and services.